| time (UTC) | temp F | wind direction | speed MPH | gust MPH | rain 1hr in | rain 24hr in | rain mn in | humidity % | barometer mb |
| 20260906054453 | 50 | 313 | 8.0 | 14.0 | 0.00 | 0.01 | 0.00 | 84 | 1005.4 |
| 20260906044124 | 49 | 324 | 9.0 | 17.0 | 0.00 | 0.01 | 0.00 | 95 | 1005.0 |
| 20260906042452 | 48 | 304 | 7.0 | 14.0 | 0.00 | 0.01 | 0.00 | 98 | 1004.7 |
| 20260906040453 | 48 | 302 | 7.0 | 13.0 | 0.00 | 0.01 | 0.00 | 98 | 1004.4 |
| 20260906034123 | 48 | 300 | 7.0 | 13.0 | 0.00 | 0.01 | 0.00 | 99 | 1004.0 |
| 20260906032454 | 48 | 300 | 8.0 | 15.0 | 0.00 | 0.01 | 0.00 | 99 | 1003.9 |
| 20260906030454 | 48 | 297 | 8.0 | 15.0 | 0.00 | 0.01 | 0.00 | 100 | 1003.7 |
| 20260906024124 | 47 | 298 | 7.0 | 14.0 | 0.00 | 0.01 | 0.00 | 100 | 1003.4 |
| 20260906022454 | 47 | 299 | 7.0 | 15.0 | 0.00 | 0.01 | 0.00 | 100 | 1003.3 |
| 20260906020453 | 46 | 294 | 7.0 | 13.0 | 0.00 | 0.01 | 0.00 | 100 | 1003.1 |
| 20260906014455 | 47 | 295 | 7.0 | 13.0 | 0.00 | 0.01 | 0.00 | 100 | 1002.7 |
| 20260906012454 | 47 | 297 | 7.0 | 15.0 | 0.00 | 0.01 | 0.00 | 100 | 1002.7 |
| 20260906010454 | 47 | 299 | 7.0 | 13.0 | 0.00 | 0.01 | 0.00 | 100 | 1002.5 |
| 20260906004455 | 47 | 303 | 7.0 | 12.0 | 0.00 | 0.01 | 0.00 | 100 | 1002.3 |
| 20260906002454 | 47 | 299 | 7.0 | 15.0 | 0.00 | 0.01 | 0.00 | 100 | 1002.1 |
| 20260905234453 | 47 | 298 | 8.0 | 13.0 | 0.00 | 0.01 | 0.00 | 100 | 1001.6 |
| 20260905232452 | 48 | 294 | 6.0 | 11.0 | 0.00 | 0.01 | 0.00 | 100 | 1001.5 |
| 20260905230453 | 48 | 296 | 6.0 | 10.0 | 0.00 | 0.01 | 0.00 | 100 | 1001.3 |
| 20260905224123 | 49 | 305 | 5.0 | 9.0 | 0.00 | 0.01 | 0.00 | 100 | 1001.1 |
| 20260905222452 | 49 | 307 | 6.0 | 11.0 | 0.00 | 0.01 | 0.00 | 100 | 1001.0 |
| 20260905220452 | 49 | 300 | 6.0 | 10.0 | 0.00 | 0.01 | 0.00 | 100 | 1000.8 |
| 20260905214453 | 50 | 315 | 7.0 | 13.0 | 0.00 | 0.01 | 0.00 | 99 | 1000.6 |
| 20260905212453 | 50 | 311 | 6.0 | 11.0 | 0.00 | 0.01 | 0.00 | 99 | 1000.5 |
| 20260905210453 | 50 | 308 | 6.0 | 10.0 | 0.00 | 0.01 | 0.00 | 99 | 1000.3 |
| 20260905204452 | 51 | 310 | 6.0 | 10.0 | 0.00 | 0.01 | 0.01 | 98 | 1000.0 |
| 20260905202452 | 51 | 309 | 6.0 | 9.0 | 0.00 | 0.01 | 0.01 | 97 | 999.8 |
| 20260905194452 | 53 | 308 | 6.0 | 11.0 | 0.00 | 0.01 | 0.01 | 93 | 999.4 |
| 20260905192122 | 54 | 304 | 6.0 | 11.0 | 0.00 | 0.01 | 0.01 | 91 | 999.3 |
| 20260905190122 | 54 | 299 | 7.0 | 13.0 | 0.00 | 0.01 | 0.01 | 88 | 999.2 |
| 20260905182451 | 56 | 306 | 5.0 | 10.0 | 0.00 | 0.01 | 0.01 | 83 | 998.8 |
| 20260905180121 | 56 | 299 | 6.0 | 10.0 | 0.00 | 0.01 | 0.01 | 84 | 998.7 |
| 20260905174449 | 56 | 294 | 4.0 | 8.0 | 0.00 | 0.01 | 0.01 | 82 | 998.5 |
| 20260905172121 | 56 | 287 | 4.0 | 7.0 | 0.00 | 0.01 | 0.01 | 79 | 998.1 |
| 20260905164452 | 57 | 285 | 4.0 | 6.0 | 0.00 | 0.01 | 0.01 | 79 | 997.9 |
| 20260905162123 | 57 | 303 | 5.0 | 9.0 | 0.00 | 0.01 | 0.01 | 75 | 997.7 |
| 20260905160452 | 57 | 299 | 5.0 | 10.0 | 0.00 | 0.01 | 0.01 | 73 | 997.4 |
| 20260905154122 | 58 | 292 | 4.0 | 9.0 | 0.00 | 0.01 | 0.01 | 72 | 997.3 |
| 20260905152122 | 61 | 307 | 8.0 | 14.0 | 0.00 | 0.01 | 0.01 | 61 | 997.1 |
| 20260905144451 | 61 | 323 | 4.0 | 9.0 | 0.00 | 0.01 | 0.01 | 63 | 996.8 |
| 20260905142452 | 61 | 335 | 7.0 | 13.0 | 0.00 | 0.01 | 0.01 | 61 | 996.7 |
| 20260905140452 | 60 | 336 | 4.0 | 7.0 | 0.00 | 0.01 | 0.01 | 72 | 996.6 |
| 20260905134451 | 60 | 325 | 5.0 | 10.0 | 0.00 | 0.00 | 0.00 | 71 | 996.4 |
| 20260905132121 | 64 | 9 | 5.0 | 11.0 | 0.00 | 0.00 | 0.00 | 53 | 996.1 |
| 20260905130454 | 62 | 336 | 4.0 | 8.0 | 0.00 | 0.00 | 0.00 | 59 | 996.1 |
| 20260905124451 | 62 | 348 | 7.0 | 13.0 | 0.00 | 0.00 | 0.00 | 58 | 996.0 |
| 20260905122450 | 64 | 273 | 7.0 | 13.0 | 0.00 | 0.00 | 0.00 | 59 | 995.8 |
| 20260905120451 | 64 | 209 | 5.0 | 11.0 | 0.00 | 0.00 | 0.00 | 65 | 995.6 |
| 20260905114450 | 60 | 231 | 3.0 | 8.0 | 0.00 | 0.00 | 0.00 | 72 | 995.7 |
| 20260905112453 | 56 | 235 | 3.0 | 4.0 | 0.00 | 0.00 | 0.00 | 80 | 995.8 |
| 20260905110450 | 58 | 261 | 6.0 | 12.0 | 0.00 | 0.00 | 0.00 | 75 | 995.7 |
| 20260905104451 | 63 | 284 | 6.0 | 13.0 | 0.00 | 0.00 | 0.00 | 57 | 995.3 |
| 20260905102451 | 62 | 248 | 5.0 | 10.0 | 0.00 | 0.00 | 0.00 | 64 | 995.1 |
| 20260905100450 | 60 | 219 | 4.0 | 7.0 | 0.00 | 0.00 | 0.00 | 67 | 995.0 |
| 20260905094449 | 61 | 221 | 5.0 | 10.0 | 0.00 | 0.00 | 0.00 | 71 | 994.9 |
| 20260905092450 | 60 | 221 | 4.0 | 8.0 | 0.00 | 0.00 | 0.00 | 73 | 994.9 |
| 20260905090451 | 58 | 266 | 3.0 | 6.0 | 0.00 | 0.00 | 0.00 | 80 | 994.9 |
| 20260905084451 | 56 | 278 | 3.0 | 7.0 | 0.00 | 0.00 | 0.00 | 84 | 994.9 |
| 20260905082453 | 55 | 295 | 4.0 | 6.0 | 0.00 | 0.00 | 0.00 | 90 | 994.8 |
| 20260905074449 | 54 | 295 | 4.0 | 8.0 | 0.00 | 0.00 | 0.00 | 94 | 994.8 |
| 20260905072449 | 52 | 298 | 3.0 | 5.0 | 0.00 | 0.00 | 0.00 | 100 | 994.6 |
| 20260905064119 | 52 | 296 | 3.0 | 5.0 | 0.00 | 0.00 | 0.00 | 100 | 994.4 |
| 20260905060449 | 51 | 324 | 1.0 | 2.0 | 0.00 | 0.00 | 0.00 | 100 | 994.2 |